SL-16 DEB, 39902

Orbit data source: Space-Track

SL-16 DEB, 39902 is space debris in LEO originally from a launch on Fri, 26 Mar 1993 UTC launched from the Tyuratam Missile And Space Complex (TTMTR). Debris objects in space refer to the collection of defunct objects orbiting the Earth. Examples of debris include non-operational satellites, rocket bodies, and fragments generated from explosions, collisions, or faulty payload assembly.

Loading next visibility...
Identifier
39902, 1993-016CC
Orbit
LEO
Country
Flag of CISCIS
Related business
Manufacturer
Unknown
Mission
Spacecraft
Bus & Motor
Unknown
Mass
Unknown
Launch date (UTC)
1993-03-26 (33 years ago)
Launch vehicle
Unknown
Launch site
Tyuratam Missile And Space Complex (TTMTR)
Object type
Payload
Rocket body
Debris
Shape & HBR
Unknown shape, 0.1 m
Radar Cross Section
Small (<0.1 m²)

Expand to show TLE details & history
Last TLE update: 2 days ago

TLE from 2 days ago
0 SL-16 DEB
1 39902U 93016CC  25339.60865836  .00000386  00000-0  39782-3 0  9995
2 39902  71.0038 291.0728 0187606  72.9901 100.1795 13.74506391576784
Epoch: 2025-12-05T14:36Z
TLE epoch observation values (Epoch: 2025-12-05T14:36:28.082Z)
Latitude
4.38797°
Longitude
175.80161°
Altitude
1,012.24 km
Speed
7.333 km/s
True Right ascension
07h 18m 16s
True Declination
4° 21' 46"
Sunlit
Object was in full shadow at epoch
Visualization orbit readout
Latitude
Unknown
Longitude
Unknown
Altitude
Unknown
Speed
Unknown
Apparent Right ascension
Unknown
Apparent Declination
Unknown
Sunlit
N/A
Visualization observer readout
Local Sidereal Time
19:09:13
Azimuth
Unknown
Elevation
Unknown
Doppler factor
Unknown
Orbital elements
Apogee altitude
1,119.469 km
Perigee altitude
843.331 km
Semi-major axis
7,359.537 km
Eccentricity
0.01876
Inclination
71.0038°
RAAN
291.0728°
Arg. of periapsis
72.9901°
True anomaly
102.28626°
Mean anomaly
100.1795°
Eccentric anomaly
101.23381°
Mean motion
3.4377 °/min
Orbital period
104.72 mins
BSTAR
0.00039782
Loading maneuver chart data...
Computing Atmospheric mass density...
Loading historical data...
Loading historical data...
Loading historical data...
Loading historical data...
Loading historical data...
Loading historical data...
Loading historical data...

Documentation

Showing up to 5 results
|